Stations météo

réclame
Mon MeteoGroup
Perpignan, France (7747): Température de l'air & dewpoint: 17.09.2017 21:00:00 - 23.09.2017 21:00:00 (CEST)Perpignan, France (7747): Température de l'air 5cm: 17.09.2017 21:00:00 - 23.09.2017 21:00:00 (CEST)Perpignan, France (7747): Température de l'air -20cm & Température de l'air -100cm: 17.09.2017 21:00:00 - 23.09.2017 21:00:00 (CEST)Perpignan, France (7747): Vitesse du vent & gusts: 17.09.2017 21:00:00 - 23.09.2017 21:00:00 (CEST)Perpignan, France (7747): Direction du vent: 17.09.2017 21:00:00 - 23.09.2017 21:00:00 (CEST)Perpignan, France (7747): reduced air pressure: 17.09.2017 21:00:00 - 23.09.2017 21:00:00 (CEST)Perpignan, France (7747): visibility: 17.09.2017 21:00:00 - 23.09.2017 21:00:00 (CEST)Perpignan, France (7747): Ensoleillement: 17.09.2017 21:00:00 - 23.09.2017 21:00:00 (CEST)Perpignan, France (7747): Quantités de précipitations: 17.09.2017 21:00:00 - 23.09.2017 21:00:00 (CEST)
Date & Time tt [°C] td [°C] tt 5cm [°C] tt -20cm [°C] tt -100cm [°C] ff [km/h] ff [knt] fx [km/h] fx [knt] dd ppp [hPa] vv [km] sd [min] rr [mm]
23.09.2017 21:00:00 17,9 15,3 15,0 23,8 22,9 0 0 11 6 N 1020,1 20 0 0,0
23.09.2017 20:00:00 18,7 15,2 18,3 23,7 22,9 9 5 12 7 ESE 1019,9 26 8 0,0
23.09.2017 19:00:00 19,8 14,8 20,7 23,6 23,0 9 5 16 9 ESE 1019,9 36 60 0,0
23.09.2017 18:00:00 21,0 15,3 23,2 23,4 23,0 10 6 16 9 ESE 1020,0 33 49 0,0
23.09.2017 17:00:00 21,6 14,7 24,7 23,0 22,9 10 5 21 12 E 1020,2 60 55 0,0
23.09.2017 16:00:00 22,3 14,9 25,3 22,5 22,9 12 7 23 12 ESE 1020,5 34 47 0,0
23.09.2017 15:00:00 21,9 14,8 25,0 22,1 22,9 17 9 31 17 ENE 1020,7 45 52 0,0
23.09.2017 14:00:00 23,0 14,8 25,6 21,7 22,9 13 7 21 11 ENE 1020,8 20 56 0,0
23.09.2017 13:00:00 22,3 14,7 24,8 21,5 22,9 9 5 24 13 NE 1021,0 19 34 0,0
23.09.2017 12:00:00 20,0 15,0 21,4 21,4 22,9 5 3 12 6 NE 1021,6 18 3 0,0
23.09.2017 11:00:00 18,8 15,5 19,5 21,4 22,9 8 4 12 6 ENE 1021,9 17 0 0,0
23.09.2017 10:00:00 18,0 15,6 18,0 21,4 22,9 6 3 9 5 E 1022,0 14 0 0,0
23.09.2017 09:00:00 17,2 14,3 17,1 21,5 23,0 3 1 5 3 ENE 1021,8 20 0 0,0
23.09.2017 08:00:00 16,9 14,5 16,3 21,6 23,0 4 2 8 5 NNE 1021,4 16 0 0,0
23.09.2017 07:00:00 16,9 14,7 16,3 21,7 22,9 7 4 9 5 N 1021,2 20 0 0,0
23.09.2017 06:00:00 16,9 14,4 14,2 21,8 23,0 4 2 5 3 N 1021,0 24 0 0,0
23.09.2017 05:00:00 16,4 12,9 13,8 22,0 23,0 2 1 3 2 NNE 1021,0 37 0 0,0
23.09.2017 04:00:00 16,7 12,4 14,4 22,1 23,0 0 0 4 2 N 1020,9 44 0 0,0
23.09.2017 03:00:00 17,2 11,7 15,9 22,3 23,0 4 2 10 5 WSW 1021,5 59 0 0,0
23.09.2017 02:00:00 17,7 11,7 17,1 22,4 23,0 8 4 14 7 WSW 1021,6 59 0 0,0
23.09.2017 01:00:00 17,9 11,9 17,3 22,6 23,0 9 5 11 6 WSW 1021,7 57 0 0,0
23.09.2017 00:00:00 17,7 12,2 14,1 22,7 23,0 9 5 16 9 WSW 1021,7 55 0 0,0
22.09.2017 23:00:00 16,9 12,2 14,3 22,9 22,9 5 3 9 5 W 1021,5 51 0 0,0
22.09.2017 22:00:00 18,2 12,4 16,6 23,0 23,0 6 3 12 6 WSW 1021,3 53 0 0,0
22.09.2017 21:00:00 18,8 12,5 17,4 23,1 23,0 8 4 15 8 WSW 1020,8 53 0 0,0
22.09.2017 20:00:00 19,6 14,0 18,9 23,1 23,0 7 4 19 10 SSW 1019,9 50 0 0,0
22.09.2017 19:00:00 21,9 11,3 20,8 23,0 23,0 14 8 25 13 W 1019,8 59 0 0,0
22.09.2017 18:00:00 20,3 14,4 20,7 22,8 23,0 5 3 12 7 SW 1020,9 57 0 0,0
22.09.2017 17:00:00 21,8 13,7 22,9 22,4 23,0 10 5 21 11 E 1020,5 59 8 0,0
22.09.2017 16:00:00 23,9 12,5 26,5 21,8 23,0 13 7 24 13 SE 1020,3 53 50 0,0
22.09.2017 15:00:00 25,5 13,0 28,8 21,3 23,0 16 9 26 14 ESE 1019,9 60 60 0,0
22.09.2017 14:00:00 26,1 12,2 31,2 20,8 23,0 13 7 29 15 E 1020,2 60 60 0,0
22.09.2017 13:00:00 25,9 10,9 31,4 20,4 23,0 6 4 16 9 ENE 1020,5 60 60 0,0
22.09.2017 12:00:00 24,0 9,9 28,2 20,2 23,0 6 3 18 10 WNW 1020,7 49 60 0,0
22.09.2017 11:00:00 22,5 9,6 25,5 20,2 23,0 8 4 18 10 NW 1020,9 60 55 0,0
22.09.2017 10:00:00 19,8 10,5 20,2 20,3 23,0 3 1 7 4 SSE 1020,8 50 60 0,0
22.09.2017 09:00:00 15,0 10,8 10,9 20,4 23,0 2 1 7 4 SSE 1020,6 51 60 0,0
22.09.2017 08:00:00 11,6 9,3 8,2 20,7 23,0 5 3 9 5 SSW 1020,4 54 0 0,0
22.09.2017 07:00:00 11,2 8,6 7,7 20,9 23,0 3 2 7 4 SW 1020,2 58 0 0,0
22.09.2017 06:00:00 11,1 8,5 7,8 21,1 23,0 4 2 7 4 W 1020,0 60 0 0,0
22.09.2017 05:00:00 11,5 8,9 8,1 21,4 23,0 0 0 6 3 N 1020,0 60 0 0,0
22.09.2017 04:00:00 11,7 9,1 8,5 21,6 23,0 6 3 8 5 WSW 1020,0 60 0 0,0
22.09.2017 03:00:00 12,1 9,1 8,8 21,9 23,0 3 1 5 3 SW 1020,3 57 0 0,0
22.09.2017 02:00:00 12,3 9,1 9,1 22,1 23,0 0 0 3 2 N 1020,2 60 0 0,0
22.09.2017 01:00:00 12,9 9,5 9,2 22,3 23,0 0 0 3 2 N 1020,1 60 0 0,0
22.09.2017 00:00:00 13,4 9,8 10,4 22,6 23,0 0 0 8 5 N 1019,8 60 0 0,0
21.09.2017 23:00:00 14,1 10,1 11,0 22,8 23,0 5 3 9 5 W 1019,7 60 0 0,0
21.09.2017 22:00:00 14,9 10,7 11,8 23,0 23,0 4 2 6 3 WNW 1019,5 57 0 0,0
21.09.2017 21:00:00 16,8 11,3 14,3 23,1 23,0 3 2 7 4 E 1018,9 59 0 0,0
21.09.2017 20:00:00 18,2 10,8 17,5 23,0 23,0 5 3 10 5 E 1018,4 60 10 0,0
21.09.2017 19:00:00 20,0 9,5 21,1 22,9 23,1 7 4 16 8 E 1018,0 60 60 0,0
21.09.2017 18:00:00 20,9 9,2 24,7 22,5 23,0 10 5 21 11 E 1017,6 56 60 0,0
21.09.2017 17:00:00 21,4 9,6 25,6 22,1 23,0 11 6 22 12 E 1017,5 60 60 0,0
21.09.2017 16:00:00 22,2 10,0 24,7 21,5 23,1 12 6 23 12 E 1017,7 60 60 0,0
21.09.2017 15:00:00 21,6 10,7 25,2 20,9 23,1 12 7 23 13 ESE 1018,0 60 60 0,0
21.09.2017 14:00:00 21,6 10,1 28,1 20,5 23,1 9 5 26 14 E 1018,4 19 60 0,0
21.09.2017 13:00:00 21,2 9,4 26,6 20,1 23,1 10 5 21 11 ESE 1018,9 60 60 0,0
21.09.2017 12:00:00 20,4 9,3 25,6 20,0 23,0 9 5 18 10 ESE 1019,2 60 60 0,0
21.09.2017 11:00:00 19,6 9,8 24,1 19,9 23,1 9 5 19 11 ESE 1019,6 45 60 0,0
21.09.2017 10:00:00 18,5 10,3 18,7 20,1 23,1 4 2 10 5 E 1019,5 51 60 0,0
21.09.2017 09:00:00 14,9 9,0 12,2 20,2 23,1 7 4 11 6 NNW 1019,2 54 60 0,0
21.09.2017 08:00:00 11,8 7,7 11,3 20,4 23,1 8 5 12 7 NNW 1019,0 60 5 0,0
21.09.2017 07:00:00 12,5 7,6 11,9 20,6 23,1 9 5 19 10 NNW 1018,8 59 0 0,0
21.09.2017 06:00:00 13,2 7,6 12,6 20,8 23,1 12 7 17 9 NNW 1018,5 60 0 0,0
21.09.2017 05:00:00 14,3 8,0 8,6 21,1 23,1 10 5 14 8 NNW 1018,7 60 0 0,0
21.09.2017 04:00:00 11,5 7,4 8,3 21,3 23,1 7 4 9 5 W 1018,8 60 0 0,0
21.09.2017 03:00:00 12,8 7,5 8,3 21,5 23,1 3 2 8 4 SSW 1019,1 60 0 0,0
21.09.2017 02:00:00 13,1 7,1 9,0 21,8 23,1 4 2 8 5 W 1019,0 60 0 0,0
21.09.2017 01:00:00 14,0 7,1 10,1 22,1 23,2 8 4 13 7 W 1019,0 60 0 0,0
21.09.2017 00:00:00 15,1 7,4 12,1 22,3 23,1 7 4 13 7 W 1019,1 60 0 0,0
20.09.2017 23:00:00 16,6 7,2 12,8 22,5 23,2 9 5 14 8 WSW 1018,8 60 0 0,0
20.09.2017 22:00:00 17,4 6,3 12,4 22,6 23,2 5 3 10 5 W 1018,8 60 0 0,0
20.09.2017 21:00:00 18,7 7,2 14,3 22,7 23,2 3 2 12 7 N 1018,6 60 0 0,0
20.09.2017 20:00:00 20,9 7,8 18,2 22,7 23,2 6 3 18 10 NE 1018,4 60 34 0,0
20.09.2017 19:00:00 24,0 3,8 24,2 22,4 23,2 13 7 22 12 NNW 1017,9 60 60 0,0
20.09.2017 18:00:00 24,9 4,1 28,5 22,1 23,2 13 7 24 13 NW 1018,0 57 60 0,0
20.09.2017 17:00:00 25,2 3,2 29,9 21,5 23,2 13 7 25 14 NW 1018,3 60 60 0,0
20.09.2017 16:00:00 24,9 2,3 27,9 20,9 23,2 6 3 21 12 N 1018,8 60 60 0,0
20.09.2017 15:00:00 24,2 3,5 27,8 20,3 23,2 13 7 32 18 NW 1019,3 60 60 0,0
20.09.2017 14:00:00 23,6 2,4 30,0 19,8 23,2 22 12 37 20 WNW 1019,9 60 60 0,0
20.09.2017 13:00:00 22,3 3,9 28,4 19,5 23,2 15 8 30 16 N 1020,6 60 60 0,0
20.09.2017 12:00:00 21,1 5,0 25,3 19,3 23,2 11 6 38 21 WNW 1021,2 60 60 0,0
20.09.2017 11:00:00 19,5 5,2 22,0 19,3 23,2 21 12 36 19 NW 1021,4 60 60 0,0
20.09.2017 10:00:00 17,8 6,6 19,7 19,4 23,3 21 11 35 19 NW 1021,8 60 60 0,0
20.09.2017 09:00:00 15,7 6,9 12,7 19,5 23,3 14 8 24 13 WNW 1022,0 50 60 0,0
20.09.2017 08:00:00 12,6 6,4 11,1 19,7 23,3 10 5 26 14 W 1022,3 46 13 0,0
20.09.2017 07:00:00 13,7 6,3 11,4 19,9 23,3 18 10 25 13 NW 1022,2 60 0 0,0
20.09.2017 06:00:00 12,5 6,5 9,1 20,1 23,3 11 6 17 9 WNW 1022,3 60 0 0,0
20.09.2017 05:00:00 13,3 6,2 11,1 20,3 23,3 12 6 17 9 W 1022,5 60 0 0,0
20.09.2017 04:00:00 14,1 6,2 11,6 20,5 23,3 10 5 21 11 WNW 1022,6 60 0 0,0
20.09.2017 03:00:00 15,3 6,6 13,2 20,7 23,3 14 8 27 14 WNW 1023,0 60 0 0,0
20.09.2017 02:00:00 15,1 6,6 13,0 20,8 23,4 12 7 21 11 WNW 1023,2 58 0 0,0
20.09.2017 01:00:00 15,7 7,2 14,0 21,0 23,4 11 6 27 14 WNW 1023,5 60 0 0,0
20.09.2017 00:00:00 16,3 8,0 15,2 21,1 23,4 13 7 37 20 W 1023,5 60 0 0,0
19.09.2017 23:00:00 17,8 7,8 17,4 21,2 23,4 22 12 45 24 NW 1023,2 60 0 0,0
19.09.2017 22:00:00 18,6 6,1 17,2 21,4 23,4 23 12 46 25 NW 1022,6 60 0 0,0
19.09.2017 21:00:00 18,7 5,5 17,5 21,4 23,4 17 9 35 19 NW 1022,0 60 0 0,0
19.09.2017 20:00:00 19,5 5,2 18,9 21,4 23,4 29 16 58 31 NW 1021,3 60 38 0,0
19.09.2017 19:00:00 20,4 4,4 20,6 21,3 23,5 36 19 55 30 WNW 1020,9 33 57 0,0
19.09.2017 18:00:00 20,9 5,3 21,6 21,0 23,4 32 17 53 29 NW 1020,7 41 49 0,0
19.09.2017 17:00:00 21,9 4,0 22,9 20,7 23,4 29 15 54 29 NW 1020,4 44 56 0,0
19.09.2017 16:00:00 20,3 6,2 20,8 20,4 23,4 31 17 61 33 NW 1020,8 39 26 0,0
19.09.2017 15:00:00 20,6 5,8 21,4 20,0 23,4 33 18 59 32 NW 1021,0 60 42 0,0
19.09.2017 14:00:00 19,9 4,4 20,0 19,7 23,4 31 17 58 31 NW 1021,6 54 43 0,0
19.09.2017 13:00:00 18,7 4,8 20,1 19,5 23,4 29 16 53 29 NNW 1022,2 60 41 0,0
19.09.2017 12:00:00 19,5 4,8 22,6 19,3 23,5 36 20 63 34 WNW 1022,2 34 60 0,0
19.09.2017 11:00:00 18,4 5,9 20,4 19,3 23,5 39 21 65 35 WNW 1022,0 38 60 0,0
19.09.2017 10:00:00 17,1 6,9 18,2 19,4 23,5 38 20 59 32 NW 1022,0 52 60 0,0
19.09.2017 09:00:00 16,1 8,3 14,8 19,6 23,5 31 17 49 27 NW 1021,6 60 60 0,0
19.09.2017 08:00:00 15,2 8,4 14,4 19,7 23,5 30 16 45 24 NW 1021,4 60 3 0,0
19.09.2017 07:00:00 15,1 8,6 14,4 19,9 23,5 28 15 49 27 NW 1021,2 60 0 0,0
19.09.2017 06:00:00 15,5 8,5 14,6 20,1 23,5 37 20 55 30 NW 1020,5 60 0 0,0
19.09.2017 05:00:00 15,7 8,7 14,9 20,2 23,5 30 16 48 26 NW 1020,1 60 0 0,0
19.09.2017 04:00:00 15,9 9,1 14,7 20,4 23,5 20 11 44 24 NW 1020,1 60 0 0,0
19.09.2017 03:00:00 15,9 9,3 15,1 20,6 23,5 18 10 37 20 NNW 1020,4 57 0 0,0
19.09.2017 02:00:00 16,5 9,4 15,5 20,8 23,5 21 11 44 24 NNW 1020,4 59 0 0,0
19.09.2017 01:00:00 16,5 10,1 15,3 21,0 23,6 29 15 47 25 WNW 1020,4 60 0 0,0
19.09.2017 00:00:00 16,0 9,9 14,9 21,3 23,6 22 12 36 19 NW 1020,9 60 0 0,0
18.09.2017 23:00:00 15,7 9,8 14,1 21,4 23,6 19 10 29 15 NW 1020,8 60 0 0,0
18.09.2017 22:00:00 15,4 10,0 14,4 21,6 23,6 15 8 22 12 NW 1020,7 60 0 0,0
18.09.2017 21:00:00 15,5 9,6 13,5 21,8 23,6 6 3 29 15 NW 1020,1 60 0 0,0
18.09.2017 20:00:00 16,7 9,9 16,4 21,8 23,6 17 9 36 19 NNW 1019,0 60 1 0,0
18.09.2017 19:00:00 17,9 11,5 18,4 21,7 23,6 22 12 41 22 NNW 1018,2 60 39 0,0
18.09.2017 18:00:00 17,8 12,0 17,3 21,6 23,6 20 11 42 23 NW 1016,9 51 2 0,0
18.09.2017 17:00:00 21,2 10,1 21,2 21,4 23,6 26 14 48 26 NW 1016,3 36 19 0,0
18.09.2017 16:00:00 20,3 10,1 22,4 21,0 23,6 15 8 35 19 NNW 1016,3 59 44 0,0
18.09.2017 15:00:00 19,1 11,9 22,5 20,7 23,6 10 5 18 10 NW 1017,1 60 25 0,0
18.09.2017 14:00:00 17,0 12,9 16,3 20,6 23,6 3 2 10 5 W 1017,7 60 6 0,2
18.09.2017 13:00:00 15,9 12,8 15,9 20,6 23,6 4 2 13 7 NW 1018,1 39 0 0,6
18.09.2017 12:00:00 15,1 12,6 14,2 20,6 23,6 7 4 11 6 W 1018,5 19 0 0,8
18.09.2017 11:00:00 14,8 11,9 14,1 20,6 23,6 8 4 10 6 NNW 1018,5 8 0 0,8
18.09.2017 10:00:00 15,2 11,0 14,3 20,8 23,7 0 0 8 4 N 1018,0 27 0 0,0
18.09.2017 09:00:00 14,4 10,6 13,1 20,9 23,7 4 2 9 5 SSW 1017,6 60 0 0,0
18.09.2017 08:00:00 14,5 10,3 13,1 21,0 23,7 2 1 10 5 S 1017,3 30 0 0,2
18.09.2017 07:00:00 14,6 9,6 13,3 21,2 23,7 6 3 9 5 NW 1017,3 60 0 0,0
18.09.2017 06:00:00 13,5 10,1 12,6 21,3 23,7 7 4 10 5 W 1017,4 60 0 0,0
18.09.2017 05:00:00 13,7 9,5 13,0 21,5 23,7 9 5 16 9 SW 1017,4 60 0 0,0
18.09.2017 04:00:00 14,0 9,6 13,0 21,6 23,7 9 5 21 11 SSW 1017,6 60 0 0,0
18.09.2017 03:00:00 15,7 9,8 14,6 21,8 23,8 12 6 18 10 W 1018,2 60 0 0,0
18.09.2017 02:00:00 16,4 10,0 15,2 22,0 23,8 13 7 21 11 W 1018,7 60 0 0,0
18.09.2017 01:00:00 16,0 10,3 15,3 22,1 23,8 9 5 18 10 W 1019,2 60 0 0,0
18.09.2017 00:00:00 16,4 10,0 15,0 22,2 23,8 10 6 16 9 WNW 1019,3 60 0 0,0
17.09.2017 23:00:00 17,3 9,7 17,1 22,4 23,8 10 5 14 7 WNW 1019,2 60 0 0,0
17.09.2017 22:00:00 17,6 10,7 16,4 22,4 23,8 5 3 9 5 NW 1019,1 60 0 0,0
17.09.2017 21:00:00 18,1 10,0 17,6 22,5 23,9 0 0 6 4 N 1018,4 60 0 0,0

tt = Température de l'air
td = dewpoint
tt 5cm = Température de l'air 5cm
tt -20cm = Température de l'air -20cm
tt -100cm = Température de l'air -100cm
ff = Vitesse du vent
fx = gusts
dd = Direction du vent
ppp = reduced air pressure
vv = visibility
sd = Ensoleillement
rr = Quantités de précipitations

stations d'obs. à proximité